Weather History for Sibiu, Romania

Change the Weather History Date:

Monday, September 9, 2013

  Actual Average (LRTM) Record (LRTM)
Temperature  
Mean Temperature 59 °F -  
Max Temperature 75 °F 68 °F 125 °F (1998)
Min Temperature 43 °F 44 °F 35 °F (2000)
Degree Days  
Heating Degree Days 6    
Growing Degree Days 9 (Base 50)    
Moisture  
Dew Point 52 °F    
Average Humidity 68    
Maximum Humidity 100    
Minimum Humidity 35    
Precipitation  
Precipitation 0.00 in 0.06 in - ()
Sea Level Pressure  
Sea Level Pressure 30.13 in    
Wind  
Wind Speed 4 mph ()    
Max Wind Speed 14 mph    
Max Gust Speed -    
Visibility 8.2 miles    
Events Rain    
Averages and records for this station are not official NWS values.
T = Trace of Precipitation, MM = Missing Value Source: Averaged Metar Reports

Daily Weather History Graph

Daily Weather History Graph

Search for Another Location

Airport:

Trip Planner

Search our weather history database for the weather conditions in past years. The results will help you decide how hot, cold, wet, or windy it might be!

Date:

Astronomy

Sep. 09, 2013 Rise Set
Actual Time 6:54 AM EEST 7:46 PM EEST
Civil Twilight 6:24 AM EEST 8:16 PM EEST
Nautical Twilight 5:48 AM EEST 8:52 PM EEST
Astronomical Twilight 5:10 AM EEST 9:30 PM EEST
Moon 11:10 AM EEST (9/9) 9:33 PM EEST (9/9)
Length of Visible Light 13h 52m
Length of Day
12h 52m
Waxing Crescent, 16% of the Moon is Illuminated
Sep 9
Waxing Crescent
Sep 12
First Quarter
Sep 19
Full
Sep 27
Last Quarter
Oct 5
New

Hourly Weather History & Observations

Time (EEST) Temp. Dew Point Humidity Pressure Visibility Wind Dir Wind Speed Gust Speed Precip Events Conditions
12:00 AM 54 °F 45 °F 64% 30.24 in 12 mi WSW 2.2 mph - -  
12:00 AM 55.4 °F 46.4 °F 72% 30.21 in - Calm Calm - N/A   Clear
1:00 AM 55 °F 49 °F 72% 30.23 in 12 mi North 2.2 mph - -  
1:00 AM 53.6 °F 48.2 °F 82% 30.21 in - ENE 2.3 mph - N/A   Clear
2:00 AM 50.0 °F 46.4 °F 87% 30.21 in - Calm Calm - N/A   Clear
3:00 AM 53 °F 47 °F 75% 30.23 in 12 mi East 2.2 mph - -  
3:00 AM 50.0 °F 46.4 °F 87% 30.21 in 6.2 mi ESE 4.6 mph - N/A   Unknown
4:00 AM 50 °F 46 °F 82% 30.23 in 12 mi ESE 2.2 mph - -  
4:00 AM 46.4 °F 44.6 °F 93% 30.21 in 6.2 mi Calm Calm - N/A   Unknown
5:00 AM 46 °F 44 °F 89% 30.24 in 12 mi ESE 2.2 mph - -  
5:00 AM 44.6 °F 42.8 °F 93% 30.18 in 6.2 mi Variable 2.3 mph - N/A   Unknown
5:30 AM 46.4 °F 44.6 °F 93% 30.18 in - WSW 2.3 mph - N/A   Clear
6:00 AM 45 °F 44 °F 95% 30.23 in 12 mi SW 2.2 mph - -  
6:00 AM 44.6 °F 42.8 °F 93% 30.18 in - Variable 2.3 mph - N/A   Clear
6:30 AM 44.6 °F 42.8 °F 93% 30.18 in - Calm Calm - N/A   Clear
7:00 AM 44.6 °F 44.6 °F 100% 30.18 in - Calm Calm - N/A   Clear
7:30 AM 44.6 °F 42.8 °F 93% 30.18 in - Variable 2.3 mph - N/A   Clear
8:00 AM 50.0 °F 48.2 °F 94% 30.18 in - Variable 2.3 mph - N/A   Clear
8:30 AM 53.6 °F 48.2 °F 82% 30.18 in - Calm Calm - N/A   Clear
9:00 AM 55 °F 50 °F 79% 30.17 in 31 mi East 2.2 mph - -   Scattered Clouds
9:00 AM 57.2 °F 50.0 °F 77% 30.15 in 6.2 mi Variable 2.3 mph - N/A   Unknown
9:30 AM 59.0 °F 50.0 °F 72% 30.15 in - Variable 2.3 mph - N/A   Clear
10:00 AM 63 °F 51 °F 56% 30.14 in 31 mi Calm Calm - -   Scattered Clouds
10:00 AM 62.6 °F 53.6 °F 72% 30.15 in - Variable 2.3 mph - N/A   Clear
10:30 AM 68.0 °F 53.6 °F 60% 30.15 in - Calm Calm - N/A   Clear
11:00 AM 69 °F 55 °F 51% 30.12 in 31 mi ESE 2.2 mph - -   Scattered Clouds
11:00 AM 69.8 °F 53.6 °F 56% 30.12 in - SE 13.8 mph - N/A   Clear
11:30 AM 69.8 °F 53.6 °F 56% 30.12 in - SE 13.8 mph - N/A   Clear
12:00 PM 70 °F 52 °F 42% 30.09 in 12 mi SE 13.4 mph - -   Scattered Clouds
12:00 PM 69.8 °F 53.6 °F 56% 30.12 in - SE 11.5 mph - N/A   Clear
12:30 PM 71.6 °F 53.6 °F 53% 30.12 in - SE 13.8 mph - N/A   Clear
1:00 PM 72 °F 53 °F 40% 30.08 in 31 mi SE 13.4 mph - -   Scattered Clouds
1:00 PM 71.6 °F 53.6 °F 53% 30.12 in - SE 11.5 mph - N/A   Clear
1:30 PM 73.4 °F 53.6 °F 50% 30.12 in - SSE 11.5 mph - N/A   Clear
2:00 PM 74 °F 52 °F 35% 30.07 in 31 mi SE 11.2 mph - -   Scattered Clouds
2:00 PM 73.4 °F 55.4 °F 53% 30.09 in - SE 11.5 mph - N/A   Clear
2:30 PM 73.4 °F 53.6 °F 50% 30.09 in - SE 9.2 mph - N/A   Clear
3:00 PM 74 °F 52 °F 36% 30.05 in 31 mi SE 11.2 mph - -   Scattered Clouds
3:00 PM 73.4 °F 55.4 °F 53% 30.09 in - SE 9.2 mph - N/A   Clear
3:30 PM 73.4 °F 55.4 °F 53% 30.06 in - SSE 9.2 mph - N/A   Clear
4:00 PM 75 °F 54 °F 37% 30.03 in 31 mi ESE 8.9 mph - -   Scattered Clouds
4:00 PM 73.4 °F 53.6 °F 50% 30.06 in - SSE 4.6 mph - N/A   Clear
4:30 PM 73.4 °F 55.4 °F 53% 30.06 in - SE 4.6 mph - N/A   Clear
5:00 PM 73 °F 54 °F 42% 30.03 in 31 mi SE 4.5 mph - -   Mostly Cloudy
5:00 PM 71.6 °F 57.2 °F 60% 30.06 in - SSE 4.6 mph - N/A   Clear
5:30 PM 71.6 °F 57.2 °F 60% 30.09 in - West 4.6 mph - N/A   Clear
6:00 PM 72 °F 56 °F 48% 30.04 in 31 mi WSW 4.5 mph - -   Mostly Cloudy
6:00 PM 73.4 °F 55.4 °F 53% 30.09 in - West 4.6 mph - N/A   Clear
6:30 PM 69.8 °F 57.2 °F 64% 30.09 in 6.2 mi SSE 4.6 mph - N/A   Mostly Cloudy
7:00 PM 70 °F 57 °F 53% 30.04 in 31 mi SE 2.2 mph - -   Overcast
7:00 PM 68.0 °F 57.2 °F 68% 30.09 in 6.2 mi SSE 4.6 mph - N/A   Overcast
7:30 PM 66.2 °F 57.2 °F 73% 30.09 in 6.2 mi South 4.6 mph - N/A Rain Light Rain
8:00 PM 66 °F 58 °F 69% 30.06 in 12 mi SSE 2.2 mph - -   Overcast
8:00 PM 66.2 °F 57.2 °F 73% 30.09 in 6.2 mi West 6.9 mph - N/A   Overcast
8:30 PM 64.4 °F 55.4 °F 73% 30.09 in 6.2 mi West 9.2 mph - N/A Rain Light Rain
9:00 PM 63 °F 56 °F 70% 30.07 in 6 mi WSW 8.9 mph - - Rain Light Rain Showers
9:00 PM 62.6 °F 55.4 °F 77% 30.09 in 6.2 mi West 9.2 mph - N/A Rain Light Rain
10:00 PM 60 °F 56 °F 82% 30.10 in 6 mi WSW 6.7 mph - - Rain Light Rain Showers
10:00 PM 60.8 °F 55.4 °F 82% 30.09 in 6.2 mi WSW 6.9 mph - N/A Rain Light Rain
11:00 PM 58 °F 56 °F 90% 30.11 in 6 mi SW 6.7 mph - -   Overcast
11:00 PM 59.0 °F 57.2 °F 94% 30.09 in 6.2 mi SE 2.3 mph - N/A Rain Light Rain